FW7253 Weather Reports


time (UTC)temp
C
wind
direction
speed
KPH
gust
KPH
rain 1hr
cm
rain 24hr
cm
rain mn
cm
humidity
%
barometer
mb
20260831080055 13 0 0.0 0.0 0.00 0.00 0.00 97 1004.7
20260831075531 13 0 0.0 0.0 0.00 0.00 0.00 97 1004.8
20260831075033 13 0 0.0 0.0 0.00 0.00 0.00 97 1004.8
20260831074546 13 0 0.0 0.0 0.00 0.00 0.00 97 1004.8
20260831074032 13 0 0.0 0.0 0.00 0.00 0.00 97 1004.8
20260831073535 13 0 0.0 0.0 0.00 0.00 0.00 97 1004.7
20260831073054 13 0 0.0 0.0 0.00 0.00 0.00 97 1004.7
20260831072530 12 0 0.0 0.0 0.00 0.00 0.00 97 1004.6
20260831072036 12 0 0.0 0.0 0.00 0.00 0.00 97 1004.7
20260831071549 12 0 0.0 0.0 0.00 0.00 0.00 96 1004.7
20260831071031 12 0 0.0 0.0 0.00 0.00 0.00 96 1004.6
20260831070531 12 0 0.0 0.0 0.00 0.00 0.00 97 1004.7
20260831070049 12 0 0.0 0.0 0.00 0.00 0.00 97 1004.7
20260831065535 12 0 0.0 0.0 0.00 0.00 0.00 97 1004.8
20260831065035 12 0 0.0 0.0 0.00 0.00 0.00 96 1004.7
20260831064553 11 0 0.0 0.0 0.00 0.00 0.00 97 1004.7
20260831064036 11 0 0.0 0.0 0.00 0.00 0.00 96 1004.6
20260831063534 11 0 0.0 0.0 0.00 0.00 0.00 97 1004.6
20260831063050 11 0 0.0 0.0 0.00 0.00 0.00 96 1004.5
20260831062536 11 0 0.0 0.0 0.00 0.00 0.00 96 1004.4
20260831062034 11 0 0.0 0.0 0.00 0.00 0.00 96 1004.4
20260831061548 11 0 0.0 0.0 0.00 0.00 0.00 96 1004.3
20260831061033 11 0 0.0 0.0 0.00 0.00 0.00 96 1004.4
20260831060532 11 0 0.0 0.0 0.00 0.00 0.00 96 1004.3
20260831060048 11 0 0.0 0.0 0.00 0.00 0.00 96 1004.3
20260831055535 10 0 0.0 0.0 0.00 0.00 0.00 96 1004.2
20260831055033 10 0 0.0 0.0 0.00 0.00 0.00 96 1004.2
20260831054551 10 0 0.0 0.0 0.00 0.00 0.00 96 1004.3
20260831054031 10 0 0.0 1.6 0.00 0.00 0.00 96 1004.1
20260831053531 10 0 0.0 1.6 0.00 0.00 0.00 96 1004.1
20260831053048 10 252 0.0 1.6 0.00 0.00 0.00 96 1004.1
20260831052531 10 0 0.0 0.0 0.00 0.00 0.00 96 1004.1
20260831052031 10 0 0.0 0.0 0.00 0.00 0.00 96 1004.1
20260831051555 10 0 0.0 0.0 0.00 0.00 0.00 96 1004.2
20260831051034 10 0 0.0 0.0 0.00 0.00 0.00 96 1004.2
20260831050532 10 0 0.0 0.0 0.00 0.00 0.00 96 1004.3
20260831050052 10 0 0.0 0.0 0.00 0.00 0.00 96 1004.2
20260831045534 10 0 0.0 0.0 0.00 0.00 0.00 96 1004.1
20260831045037 10 0 0.0 0.0 0.00 0.00 0.00 96 1004.1
20260831044602 10 0 0.0 0.0 0.00 0.00 0.00 96 1004.2
20260831044034 10 0 0.0 0.0 0.00 0.00 0.00 96 1004.1
20260831043531 10 0 0.0 0.0 0.00 0.00 0.00 96 1004.1
20260831043056 10 0 0.0 0.0 0.00 0.00 0.00 96 1004.0
20260831042531 10 0 0.0 0.0 0.00 0.00 0.00 96 1003.9
20260831042031 10 0 0.0 0.0 0.00 0.00 0.00 96 1003.9
20260831041601 10 0 0.0 0.0 0.00 0.00 0.00 96 1003.9
20260831041038 10 0 0.0 0.0 0.00 0.00 0.00 96 1003.8
20260831040534 10 0 0.0 0.0 0.00 0.00 0.00 96 1003.7
20260831040050 10 0 0.0 0.0 0.00 0.00 0.00 96 1003.7
20260831035537 10 0 0.0 0.0 0.00 0.00 0.00 96 1003.8
20260831035032 10 0 0.0 0.0 0.00 0.00 0.00 96 1003.7
20260831034546 10 0 0.0 0.0 0.00 0.00 0.00 96 1003.7
20260831034031 10 0 0.0 0.0 0.00 0.00 0.00 96 1003.7
20260831033534 10 0 0.0 0.0 0.00 0.00 0.00 96 1003.6
20260831033052 10 0 0.0 0.0 0.00 0.00 0.00 96 1003.7
20260831032531 10 0 0.0 0.0 0.00 0.00 0.00 96 1003.6
20260831032034 10 0 0.0 0.0 0.00 0.00 0.00 96 1003.6
20260831031547 10 0 0.0 0.0 0.00 0.00 0.00 96 1003.6
20260831031031 10 0 0.0 1.6 0.00 0.00 0.00 96 1003.6
20260831030535 10 0 0.0 1.6 0.00 0.00 0.00 96 1003.5
20260831030106 10 243 0.0 1.6 0.00 0.00 0.00 96 1003.5
20260831025531 10 0 0.0 3.2 0.00 0.00 0.00 96 1003.5
20260831025031 10 0 0.0 4.8 0.00 0.00 0.00 96 1003.4
20260831024554 10 345 1.6 4.8 0.00 0.00 0.00 96 1003.4
20260831024033 10 24 0.0 4.8 0.00 0.00 0.00 96 1003.3
20260831023534 11 0 0.0 0.0 0.00 0.00 0.00 96 1003.4
20260831023047 11 0 0.0 0.0 0.00 0.00 0.00 96 1003.4
20260831022534 11 0 0.0 0.0 0.00 0.00 0.00 96 1003.5
20260831022034 11 0 0.0 0.0 0.00 0.00 0.00 96 1003.5
20260831021600 11 0 0.0 0.0 0.00 0.00 0.00 96 1003.6
20260831021036 11 0 0.0 0.0 0.00 0.00 0.00 96 1003.6
20260831020534 11 0 0.0 0.0 0.00 0.00 0.00 96 1003.7
20260831020106 11 0 0.0 0.0 0.00 0.00 0.00 96 1003.5
20260831015533 11 0 0.0 0.0 0.00 0.00 0.00 96 1003.5
20260831015034 11 0 0.0 0.0 0.00 0.00 0.00 96 1003.5
20260831014602 11 0 0.0 0.0 0.00 0.00 0.00 96 1003.6
20260831014034 11 0 0.0 0.0 0.00 0.00 0.00 96 1003.6
20260831013534 11 0 0.0 0.0 0.00 0.00 0.00 96 1003.5
20260831013050 11 0 0.0 0.0 0.00 0.00 0.00 96 1003.6
20260831012534 11 0 0.0 0.0 0.00 0.00 0.00 96 1003.5
20260831012034 11 0 0.0 0.0 0.00 0.00 0.00 96 1003.5
20260831011604 11 0 0.0 0.0 0.00 0.00 0.00 96 1003.5
20260831011034 11 0 0.0 0.0 0.00 0.00 0.00 96 1003.5
20260831010534 11 0 0.0 0.0 0.00 0.00 0.00 96 1003.6
20260831010051 11 0 0.0 0.0 0.00 0.00 0.00 96 1003.6
20260831005534 11 0 0.0 0.0 0.00 0.00 0.00 96 1003.5
20260831005034 11 0 0.0 0.0 0.00 0.00 0.00 96 1003.6
20260831004550 11 0 0.0 0.0 0.00 0.00 0.00 96 1003.4
20260831004036 12 0 0.0 0.0 0.00 0.00 0.00 96 1003.4
20260831003533 11 0 0.0 0.0 0.00 0.00 0.00 96 1003.4
20260831003051 11 0 0.0 0.0 0.00 0.00 0.00 96 1003.6
20260831002537 11 0 0.0 0.0 0.00 0.00 0.00 96 1003.6
20260831002033 11 0 0.0 0.0 0.00 0.00 0.00 96 1003.6
20260831001602 11 0 0.0 0.0 0.00 0.00 0.00 96 1003.5
20260831001033 12 0 0.0 0.0 0.00 0.00 0.00 96 1003.5
20260831000533 12 0 0.0 0.0 0.00 0.00 0.00 96 1003.6
20260831000050 12 0 0.0 0.0 0.00 0.00 0.00 96 1003.5
20260830235536 12 0 0.0 0.0 0.00 0.00 0.00 96 1003.5
20260830235035 12 0 0.0 0.0 0.00 0.00 0.00 96 1003.3
20260830234549 12 0 0.0 0.0 0.00 0.00 0.00 96 1003.4
20260830234032 12 0 0.0 0.0 0.00 0.00 0.00 96 1003.3
20260830233533 12 0 0.0 0.0 0.00 0.00 0.00 96 1003.4
20260830233103 12 0 0.0 0.0 0.00 0.00 0.00 96 1003.3
20260830232536 12 0 0.0 0.0 0.00 0.00 0.00 95 1003.4
20260830232033 13 0 0.0 0.0 0.00 0.00 0.00 96 1003.4
20260830231555 13 0 0.0 0.0 0.00 0.00 0.00 96 1003.3
20260830231033 13 0 0.0 0.0 0.00 0.00 0.00 96 1003.3
20260830230532 13 0 0.0 0.0 0.00 0.00 0.00 96 1003.5
20260830230048 13 0 0.0 0.0 0.00 0.00 0.00 96 1003.3
20260830225532 13 0 0.0 0.0 0.00 0.00 0.00 96 1003.3
20260830225034 13 0 0.0 0.0 0.00 0.00 0.00 96 1003.5
20260830224628 13 0 0.0 0.0 0.00 0.00 0.00 95 1003.4
20260830224032 13 0 0.0 0.0 0.00 0.00 0.00 96 1003.4
20260830223532 14 0 0.0 0.0 0.00 0.00 0.00 96 1003.4
20260830223057 14 0 0.0 0.0 0.00 0.00 0.00 96 1003.3
20260830222531 14 0 0.0 0.0 0.00 0.00 0.00 95 1003.2
20260830222033 13 0 0.0 0.0 0.00 0.00 0.00 95 1003.3
20260830221553 13 0 0.0 0.0 0.00 0.00 0.00 95 1003.3
20260830221033 14 0 0.0 0.0 0.00 0.00 0.00 95 1003.3
20260830220533 13 0 0.0 0.0 0.00 0.00 0.00 95 1003.3
20260830220104 13 0 0.0 0.0 0.00 0.00 0.00 95 1003.3
20260830215531 14 0 0.0 0.0 0.00 0.00 0.00 95 1003.3
20260830215033 14 0 0.0 0.0 0.00 0.00 0.00 95 1003.4
20260830214558 14 0 0.0 0.0 0.00 0.00 0.00 95 1003.3
20260830214031 14 0 0.0 0.0 0.00 0.00 0.00 95 1003.4
20260830213531 14 0 0.0 0.0 0.00 0.00 0.00 95 1003.2
20260830213052 14 0 0.0 0.0 0.00 0.00 0.00 95 1003.4
20260830212534 14 0 0.0 0.0 0.00 0.00 0.00 95 1003.2
20260830212031 14 0 0.0 0.0 0.00 0.00 0.00 94 1003.2
20260830211559 14 0 0.0 0.0 0.00 0.00 0.00 94 1003.2
20260830211033 15 0 0.0 0.0 0.00 0.00 0.00 94 1003.1
20260830210534 15 0 0.0 1.6 0.00 0.00 0.00 94 1003.1
20260830205530 15 175 0.0 0.0 0.00 0.00 0.00 94 1003.1
20260830205030 15 0 0.0 0.0 0.00 0.00 0.00 94 1003.1
20260830204552 15 153 0.0 1.6 0.00 0.00 0.00 94 1003.2
20260830204031 15 153 0.0 1.6 0.00 0.00 0.00 94 1003.1
20260830203531 15 0 0.0 3.2 0.00 0.00 0.00 94 1003.1
20260830203049 15 0 0.0 3.2 0.00 0.00 0.00 94 1003.1
20260830202531 15 0 0.0 3.2 0.00 0.00 0.00 94 1003.0
20260830202032 15 166 0.0 3.2 0.00 0.00 0.00 93 1003.1
20260830201547 15 0 0.0 3.2 0.00 0.00 0.00 93 1003.1
20260830201033 15 167 0.0 1.6 0.00 0.00 0.00 93 1003.1
20260830200537 15 127 0.0 4.8 0.00 0.00 0.00 93 1003.1
20260830200054 15 150 0.0 4.8 0.00 0.00 0.00 93 1003.0
20260830195530 15 189 0.0 4.8 0.00 0.00 0.00 93 1003.1
20260830195031 15 186 1.6 4.8 0.00 0.00 0.00 93 1003.0
20260830194551 15 131 0.0 3.2 0.00 0.00 0.00 92 1003.1
20260830194036 15 0 0.0 3.2 0.00 0.00 0.00 92 1003.0
20260830193530 15 155 1.6 4.8 0.00 0.00 0.00 92 1003.1
20260830193048 15 139 0.0 4.8 0.00 0.00 0.00 92 1003.1
20260830192530 15 0 0.0 4.8 0.00 0.00 0.00 91 1003.0
20260830192033 15 0 0.0 0.0 0.00 0.00 0.00 91 1003.0
20260830191546 15 0 0.0 0.0 0.00 0.00 0.00 91 1003.0
20260830191031 15 0 0.0 0.0 0.00 0.00 0.00 91 1003.0
20260830190530 15 0 0.0 0.0 0.00 0.00 0.00 91 1002.9
20260830190053 15 0 0.0 0.0 0.00 0.00 0.00 91 1002.9
20260830185533 15 0 0.0 1.6 0.00 0.00 0.00 91 1002.9
20260830185032 15 0 0.0 3.2 0.00 0.00 0.00 91 1002.7
20260830184547 15 0 0.0 3.2 0.00 0.00 0.00 90 1002.8
20260830184033 15 162 0.0 1.6 0.00 0.00 0.00 90 1002.8
20260830183532 16 0 0.0 1.6 0.00 0.00 0.00 90 1002.7
20260830183048 16 126 0.0 1.6 0.00 0.00 0.00 90 1002.7
20260830182534 16 0 0.0 1.6 0.00 0.00 0.00 90 1002.7
20260830182032 16 129 0.0 3.2 0.00 0.00 0.00 90 1002.7
20260830181549 16 110 0.0 3.2 0.00 0.00 0.00 89 1002.7
20260830181032 16 0 0.0 3.2 0.00 0.00 0.00 89 1002.7
20260830180534 16 172 0.0 1.6 0.00 0.00 0.00 89 1002.7
20260830180053 16 0 0.0 1.6 0.00 0.00 0.00 89 1002.7
20260830175531 16 134 0.0 3.2 0.00 0.00 0.00 88 1002.6
20260830175031 16 0 0.0 3.2 0.00 0.00 0.00 88 1002.7
20260830174551 16 109 1.6 3.2 0.00 0.00 0.00 88 1002.5
20260830174033 16 0 0.0 6.4 0.00 0.00 0.00 88 1002.5
20260830173532 16 136 0.0 6.4 0.00 0.00 0.00 88 1002.5
20260830173045 16 195 3.2 6.4 0.00 0.00 0.00 88 1002.5
20260830172532 16 0 3.2 6.4 0.00 0.00 0.00 88 1002.5
20260830172032 16 160 1.6 8.0 0.00 0.00 0.00 88 1002.5
20260830171603 16 148 1.6 8.0 0.00 0.00 0.00 88 1002.5
20260830171031 16 210 3.2 8.0 0.00 0.00 0.00 87 1002.4
20260830170531 16 168 1.6 8.0 0.00 0.00 0.00 87 1002.5
20260830170048 16 148 3.2 8.0 0.00 0.00 0.00 87 1002.4
20260830165533 16 186 3.2 8.0 0.00 0.00 0.00 87 1002.4
20260830165034 16 169 4.8 8.0 0.00 0.00 0.00 87 1002.4
20260830164600 16 203 4.8 8.0 0.00 0.00 0.00 87 1002.4
20260830164032 16 146 3.2 9.7 0.00 0.00 0.00 86 1002.3
20260830163533 17 211 4.8 11.3 0.00 0.00 0.00 86 1002.3
20260830163053 17 189 4.8 11.3 0.00 0.00 0.00 86 1002.2
20260830162533 17 172 4.8 9.7 0.00 0.00 0.00 85 1002.2
20260830162032 17 196 4.8 9.7 0.00 0.00 0.00 85 1002.2
20260830161550 17 198 4.8 12.9 0.00 0.00 0.00 85 1002.2
20260830161032 17 166 6.4 12.9 0.00 0.00 0.00 84 1002.1
20260830160532 17 207 4.8 11.3 0.00 0.00 0.00 84 1002.2
20260830160050 17 207 4.8 9.7 0.00 0.00 0.00 84 1002.1
20260830155532 17 181 6.4 9.7 0.00 0.00 0.00 84 1002.2
20260830155032 17 146 4.8 11.3 0.00 0.00 0.00 83 1002.1
20260830154548 18 226 3.2 11.3 0.00 0.00 0.00 82 1002.1
20260830154031 18 165 3.2 14.5 0.00 0.00 0.00 81 1002.1
20260830153531 18 139 4.8 14.5 0.00 0.00 0.00 81 1002.0
20260830153055 18 146 4.8 16.1 0.00 0.00 0.00 80 1002.0
20260830152532 19 167 4.8 16.1 0.00 0.00 0.00 80 1002.0
20260830152033 19 75 4.8 16.1 0.00 0.00 0.00 78 1002.0
20260830151550 20 203 3.2 16.1 0.00 0.00 0.00 78 1002.1
20260830151034 19 188 4.8 12.9 0.00 0.00 0.00 80 1002.0
20260830150533 19 168 4.8 14.5 0.00 0.00 0.00 81 1002.0
20260830150047 19 219 6.4 14.5 0.00 0.00 0.00 79 1002.1
20260830145533 18 142 4.8 12.9 0.00 0.00 0.00 80 1002.0
20260830145034 18 113 6.4 11.3 0.00 0.00 0.00 81 1002.0
20260830144546 18 164 3.2 11.3 0.00 0.00 0.00 81 1002.1
20260830144033 18 217 4.8 11.3 0.00 0.00 0.00 81 1002.1
20260830143530 18 167 4.8 12.9 0.00 0.00 0.00 81 1002.2
20260830143107 18 226 4.8 16.1 0.00 0.00 0.00 80 1002.2
20260830142530 18 182 6.4 16.1 0.00 0.00 0.00 81 1002.2
20260830142030 18 226 8.0 16.1 0.00 0.00 0.00 81 1002.1
20260830141546 18 215 4.8 17.7 0.00 0.00 0.00 82 1002.1
20260830141034 18 96 6.4 17.7 0.00 0.00 0.00 81 1002.0
20260830140533 18 200 8.0 17.7 0.00 0.00 0.00 80 1002.0
20260830140053 18 207 9.7 16.1 0.00 0.00 0.00 81 1002.0
20260830135530 18 148 4.8 14.5 0.00 0.03 0.00 79 1002.1
20260830135033 19 95 6.4 12.9 0.00 0.03 0.00 80 1002.0
20260830134548 18 89 3.2 11.3 0.00 0.03 0.00 81 1002.0
20260830134032 18 120 4.8 12.9 0.00 0.03 0.00 82 1002.2
20260830133534 18 207 4.8 17.7 0.00 0.03 0.00 83 1002.0
20260830133055 18 140 4.8 17.7 0.00 0.03 0.00 84 1002.1
20260830132530 18 107 8.0 17.7 0.00 0.03 0.00 83 1002.1
20260830132033 18 113 4.8 14.5 0.00 0.03 0.00 84 1002.0
20260830131554 17 110 6.4 16.1 0.00 0.03 0.00 85 1002.0
20260830131033 17 185 8.0 22.5 0.00 0.03 0.00 84 1001.9
20260830130532 17 86 4.8 22.5 0.00 0.03 0.00 84 1002.0
20260830125532 18 160 3.2 8.0 0.00 0.15 0.00 83 1001.9
20260830125033 18 156 1.6 8.0 0.00 0.15 0.00 83 1001.8
20260830124547 18 160 3.2 8.0 0.00 0.15 0.00 81 1001.7
20260830124031 18 134 3.2 9.7 0.00 0.15 0.00 80 1001.8
20260830123532 18 160 3.2 9.7 0.00 0.15 0.00 80 1001.7
20260830123123 18 43 3.2 8.0 0.00 0.15 0.00 79 1001.7
20260830122532 19 80 1.6 8.0 0.00 0.15 0.00 78 1001.7
20260830122034 20 166 3.2 9.7 0.00 0.15 0.00 77 1001.7
20260830121550 20 116 6.4 9.7 0.00 0.15 0.00 76 1001.7
20260830121033 19 124 4.8 8.0 0.00 0.15 0.00 80 1001.7
20260830120532 18 139 0.0 4.8 0.00 0.15 0.00 81 1001.8
20260830120059 18 115 1.6 8.0 0.00 0.15 0.00 80 1001.8
20260830115532 18 113 1.6 8.0 0.00 0.28 0.00 79 1001.8
20260830115033 18 115 1.6 9.7 0.00 0.28 0.00 79 1001.7
20260830114559 18 112 1.6 9.7 0.00 0.28 0.00 79 1001.9
20260830114032 18 161 4.8 11.3 0.00 0.28 0.00 79 1001.8
20260830113531 19 175 4.8 11.3 0.00 0.28 0.00 77 1001.7
20260830113052 20 191 4.8 14.5 0.00 0.28 0.00 75 1001.7
20260830112534 20 213 8.0 14.5 0.00 0.28 0.00 76 1001.7
20260830112032 20 288 4.8 11.3 0.00 0.28 0.00 80 1001.8
20260830111548 18 250 6.4 11.3 0.00 0.28 0.00 80 1001.7
20260830111033 18 187 6.4 11.3 0.00 0.28 0.00 81 1001.8
20260830110531 18 216 3.2 8.0 0.00 0.28 0.00 84 1001.7
20260830110049 18 141 1.6 8.0 0.00 0.28 0.00 83 1001.8
20260830105540 18 184 4.8 11.3 0.00 0.33 0.00 83 1001.8
20260830105031 18 108 4.8 11.3 0.00 0.33 0.00 82 1001.8
20260830104555 18 228 3.2 11.3 0.00 0.33 0.00 84 1001.9
20260830104032 18 257 6.4 11.3 0.00 0.33 0.00 84 1001.8
20260830103535 17 243 3.2 11.3 0.00 0.33 0.00 84 1001.9
20260830103050 17 245 6.4 11.3 0.00 0.33 0.00 84 1001.9
20260830102531 18 235 4.8 9.7 0.00 0.33 0.00 84 1001.8
20260830102031 17 181 4.8 9.7 0.00 0.33 0.00 86 1001.9
20260830101555 17 236 4.8 8.0 0.00 0.33 0.00 87 1001.9
20260830101033 17 217 1.6 6.4 0.00 0.33 0.00 87 1001.8
20260830100531 17 188 0.0 6.4 0.00 0.33 0.00 87 1001.8
20260830100047 17 174 1.6 6.4 0.00 0.33 0.00 88 1001.9
20260830095531 17 224 4.8 6.4 0.00 0.36 0.00 88 1001.9
20260830095032 17 244 1.6 9.7 0.00 0.36 0.00 89 1001.9
20260830094551 16 148 3.2 14.5 0.00 0.36 0.00 88 1001.9
20260830094031 16 210 4.8 14.5 0.00 0.36 0.00 88 1002.0
20260830093533 16 223 8.0 14.5 0.00 0.36 0.00 89 1001.9
20260830093112 16 174 4.8 11.3 0.00 0.36 0.00 89 1001.9
20260830092531 16 218 3.2 11.3 0.00 0.36 0.00 89 1002.0
20260830092031 16 144 4.8 11.3 0.00 0.36 0.00 89 1001.9
20260830091558 16 174 3.2 8.0 0.00 0.36 0.00 89 1001.9
20260830091033 16 205 4.8 8.0 0.00 0.36 0.00 90 1001.7
20260830090533 16 194 1.6 6.4 0.00 0.36 0.00 91 1001.7
20260830090051 16 0 3.2 6.4 0.00 0.36 0.00 91 1001.7
20260830085531 16 201 0.0 6.4 0.00 0.36 0.00 91 1001.8
20260830085032 16 240 3.2 6.4 0.00 0.36 0.00 91 1001.8
20260830084559 16 192 0.0 6.4 0.00 0.36 0.00 91 1001.8
20260830084032 16 157 3.2 6.4 0.00 0.36 0.00 91 1001.7
20260830083532 16 150 1.6 4.8 0.00 0.36 0.00 92 1001.8
20260830083057 16 120 3.2 6.4 0.00 0.36 0.00 92 1001.7
20260830082534 16 120 0.0 6.4 0.00 0.36 0.00 93 1001.7
20260830082032 16 206 1.6 4.8 0.00 0.36 0.00 93 1001.6
20260830081559 15 0 0.0 6.4 0.00 0.36 0.00 93 1001.8
20260830081032 15 105 0.0 6.4 0.00 0.36 0.00 93 1001.8
20260830080532 15 152 1.6 6.4 0.00 0.36 0.00 93 1001.8